| time (UTC) | temp F | wind direction | speed MPH | gust MPH | rain 1hr in | rain 24hr in | rain mn in | humidity % | barometer mb |
| 20260504234057 | 50 | 270 | 7.0 | 0.0 | 0.00 | 0.29 | 0.00 | 70 | 1004.6 |
| 20260504233054 | 50 | 205 | 9.0 | 0.0 | 0.00 | 0.30 | 0.00 | 69 | 1004.3 |
| 20260504232052 | 51 | 233 | 9.0 | 0.0 | 0.00 | 0.31 | 0.00 | 68 | 1004.3 |
| 20260504231048 | 51 | 272 | 10.0 | 0.0 | 0.00 | 0.32 | 0.00 | 66 | 1004.3 |
| 20260504230548 | 51 | 296 | 13.0 | 0.0 | 0.00 | 0.32 | 0.00 | 66 | 1003.9 |
| 20260504230046 | 52 | 242 | 8.0 | 0.0 | 0.00 | 0.33 | 0.00 | 65 | 1003.9 |
| 20260504225545 | 52 | 283 | 17.0 | 0.0 | 0.00 | 0.33 | 0.00 | 64 | 1003.9 |
| 20260504225044 | 52 | 228 | 8.0 | 0.0 | 0.00 | 0.33 | 0.00 | 63 | 1003.9 |
| 20260504224542 | 53 | 260 | 8.0 | 0.0 | 0.00 | 0.33 | 0.00 | 62 | 1003.9 |
| 20260504224042 | 53 | 222 | 15.0 | 0.0 | 0.00 | 0.34 | 0.00 | 61 | 1003.9 |
| 20260504223541 | 53 | 269 | 19.0 | 0.0 | 0.00 | 0.36 | 0.00 | 60 | 1003.9 |
| 20260504223039 | 54 | 227 | 13.0 | 0.0 | 0.00 | 0.38 | 0.00 | 59 | 1003.9 |
| 20260504222538 | 54 | 263 | 4.0 | 0.0 | 0.00 | 0.38 | 0.00 | 59 | 1003.6 |
| 20260504222034 | 53 | 297 | 11.0 | 0.0 | 0.00 | 0.40 | 0.00 | 59 | 1003.6 |
| 20260504221532 | 53 | 323 | 10.0 | 0.0 | 0.00 | 0.42 | 0.00 | 59 | 1003.6 |
| 20260504221030 | 52 | 264 | 9.0 | 0.0 | 0.00 | 0.42 | 0.00 | 58 | 1003.6 |
| 20260504220529 | 53 | 262 | 7.0 | 0.0 | 0.00 | 0.44 | 0.00 | 57 | 1003.6 |
| 20260504220026 | 53 | 249 | 14.0 | 0.0 | 0.00 | 0.44 | 0.00 | 55 | 1003.6 |
| 20260504215524 | 53 | 273 | 12.0 | 0.0 | 0.00 | 0.45 | 0.00 | 52 | 1003.6 |
| 20260504215023 | 53 | 223 | 14.0 | 0.0 | 0.00 | 0.47 | 0.00 | 49 | 1003.6 |
| 20260504214522 | 53 | 243 | 8.0 | 0.0 | 0.00 | 0.50 | 0.00 | 46 | 1003.6 |
| 20260504214020 | 54 | 218 | 9.0 | 0.0 | 0.00 | 0.52 | 0.00 | 44 | 1003.6 |
| 20260504213518 | 54 | 209 | 13.0 | 0.0 | 0.00 | 0.54 | 0.00 | 41 | 1003.6 |
| 20260504212514 | 55 | 256 | 8.0 | 0.0 | 0.00 | 0.55 | 0.00 | 36 | 1003.3 |
| 20260504212013 | 55 | 248 | 16.0 | 0.0 | 0.00 | 0.56 | 0.00 | 36 | 1003.3 |
| 20260504211511 | 55 | 252 | 9.0 | 0.0 | 0.00 | 0.57 | 0.00 | 36 | 1003.3 |
| 20260504211009 | 55 | 226 | 15.0 | 0.0 | 0.00 | 0.57 | 0.00 | 33 | 1003.3 |
| 20260504210508 | 56 | 241 | 6.0 | 0.0 | 0.00 | 0.58 | 0.00 | 35 | 1003.3 |
| 20260504210005 | 56 | 235 | 22.0 | 0.0 | 0.00 | 0.58 | 0.00 | 35 | 1003.3 |
| 20260504205503 | 57 | 278 | 12.0 | 0.0 | 0.00 | 0.58 | 0.00 | 35 | 1003.3 |
| 20260504205001 | 57 | 222 | 15.0 | 0.0 | 0.00 | 0.59 | 0.00 | 36 | 1003.3 |
| 20260504204059 | 56 | 257 | 15.0 | 0.0 | 0.00 | 0.60 | 0.00 | 38 | 1002.9 |
| 20260504203557 | 56 | 196 | 14.0 | 0.0 | 0.00 | 0.60 | 0.00 | 39 | 1002.9 |
| 20260504203055 | 56 | 227 | 15.0 | 0.0 | 0.00 | 0.60 | 0.00 | 37 | 1002.9 |
| 20260504202554 | 57 | 251 | 6.0 | 0.0 | 0.00 | 0.60 | 0.00 | 40 | 1002.9 |
| 20260504201548 | 57 | 276 | 16.0 | 0.0 | 0.00 | 0.62 | 0.00 | 39 | 1002.2 |
| 20260504201047 | 57 | 255 | 14.0 | 0.0 | 0.00 | 0.63 | 0.00 | 39 | 1002.2 |
| 20260504195037 | 56 | 191 | 9.0 | 0.0 | 0.00 | 0.66 | 0.00 | 41 | 1001.9 |
| 20260504194534 | 56 | 259 | 17.0 | 0.0 | 0.00 | 0.66 | 0.00 | 43 | 1001.9 |
| 20260504194030 | 56 | 262 | 12.0 | 0.0 | 0.00 | 0.68 | 0.00 | 41 | 1001.9 |
| 20260504193528 | 56 | 267 | 12.0 | 0.0 | 0.00 | 0.68 | 0.00 | 43 | 1001.9 |
| 20260504193026 | 56 | 233 | 14.0 | 0.0 | 0.00 | 0.69 | 0.00 | 41 | 1001.9 |
| 20260504192525 | 56 | 275 | 5.0 | 0.0 | 0.00 | 0.70 | 0.00 | 43 | 1001.9 |
| 20260504192022 | 56 | 282 | 8.0 | 0.0 | 0.00 | 0.70 | 0.00 | 43 | 1001.9 |
| 20260504191520 | 56 | 296 | 9.0 | 0.0 | 0.00 | 0.71 | 0.00 | 45 | 1001.9 |
| 20260504190516 | 56 | 287 | 15.0 | 0.0 | 0.00 | 0.73 | 0.00 | 44 | 1001.9 |
| 20260504190015 | 55 | 295 | 12.0 | 0.0 | 0.00 | 0.74 | 0.00 | 45 | 1001.9 |
| 20260504185010 | 54 | 246 | 13.0 | 0.0 | 0.00 | 0.75 | 0.00 | 47 | 1001.9 |
| 20260504184508 | 55 | 245 | 13.0 | 0.0 | 0.00 | 0.76 | 0.00 | 47 | 1001.9 |
| 20260504184006 | 54 | 271 | 12.0 | 0.0 | 0.00 | 0.77 | 0.00 | 48 | 1001.9 |
| 20260504183002 | 54 | 284 | 6.0 | 0.0 | 0.00 | 0.78 | 0.00 | 52 | 1001.9 |
| 20260504182059 | 53 | 246 | 14.0 | 0.0 | 0.00 | 0.80 | 0.00 | 53 | 1001.9 |
| 20260504181054 | 53 | 281 | 11.0 | 0.0 | 0.00 | 0.80 | 0.00 | 54 | 1001.9 |
| 20260504180050 | 52 | 238 | 9.0 | 0.0 | 0.00 | 0.81 | 0.00 | 55 | 1001.9 |
| 20260504175549 | 52 | 241 | 16.0 | 0.0 | 0.00 | 0.81 | 0.00 | 56 | 1001.9 |
| 20260504175044 | 52 | 220 | 8.0 | 0.0 | 0.00 | 0.81 | 0.00 | 58 | 1001.6 |
| 20260504174543 | 52 | 270 | 15.0 | 0.0 | 0.00 | 0.81 | 0.00 | 57 | 1001.9 |
| 20260504173541 | 52 | 285 | 18.0 | 0.0 | 0.00 | 0.81 | 0.00 | 60 | 1001.6 |
| 20260504173038 | 52 | 277 | 9.0 | 0.0 | 0.00 | 0.81 | 0.00 | 62 | 1001.6 |
| 20260504172535 | 51 | 323 | 9.0 | 0.0 | 0.00 | 0.81 | 0.00 | 62 | 1001.6 |
| 20260504172031 | 51 | 224 | 13.0 | 0.0 | 0.00 | 0.81 | 0.00 | 62 | 1001.6 |
| 20260504171529 | 52 | 244 | 9.0 | 0.0 | 0.00 | 0.81 | 0.00 | 62 | 1001.2 |
| 20260504171026 | 53 | 285 | 13.0 | 0.0 | 0.00 | 0.81 | 0.00 | 61 | 1001.2 |
| 20260504151040 | 45 | 276 | 20.0 | 0.0 | 0.00 | 0.81 | 0.00 | 87 | 1000.5 |
| 20260504150539 | 44 | 214 | 7.0 | 0.0 | 0.00 | 0.81 | 0.00 | 88 | 1000.5 |
| 20260504141020 | 42 | 255 | 10.0 | 0.0 | 0.00 | 0.81 | 0.00 | 91 | 999.5 |
| 20260504140519 | 42 | 272 | 7.0 | 0.0 | 0.00 | 0.81 | 0.00 | 92 | 999.5 |
| 20260504130503 | 42 | 213 | 16.0 | 0.0 | 0.00 | 0.81 | 0.00 | 96 | 998.5 |
| 20260504100513 | 37 | 292 | 15.0 | 0.0 | 0.02 | 0.79 | 0.00 | 99 | 993.7 |
| 20260504081042 | 34 | 248 | 14.0 | 0.0 | 0.02 | 0.75 | 0.00 | 10 | 990.0 |
| 20260504080541 | 34 | 265 | 17.0 | 0.0 | 0.12 | 0.75 | 0.00 | 10 | 989.6 |
| 20260504050548 | 36 | 288 | 14.0 | 0.0 | 0.00 | 0.60 | 0.00 | 10 | 983.1 |
| 20260504045545 | 36 | 327 | 16.0 | 0.0 | 0.00 | 0.60 | 0.00 | 10 | 982.5 |
| 20260504044542 | 36 | 308 | 15.0 | 0.0 | 0.00 | 0.60 | 0.00 | 10 | 982.5 |
| 20260504044040 | 36 | 336 | 17.0 | 0.0 | 0.00 | 0.60 | 0.00 | 10 | 982.1 |
| 20260504043538 | 36 | 275 | 20.0 | 0.0 | 0.00 | 0.60 | 0.00 | 10 | 982.1 |
| 20260504043036 | 36 | 317 | 8.0 | 0.0 | 0.00 | 0.60 | 0.00 | 10 | 981.8 |
| 20260504042535 | 36 | 295 | 14.0 | 0.0 | 0.00 | 0.60 | 0.00 | 10 | 981.8 |
| 20260504042030 | 37 | 317 | 14.0 | 0.0 | 0.00 | 0.60 | 0.00 | 10 | 981.4 |
| 20260504040526 | 37 | 267 | 15.0 | 0.0 | 0.00 | 0.60 | 0.00 | 10 | 980.8 |
| 20260504040025 | 37 | 320 | 11.0 | 0.0 | 0.00 | 0.60 | 0.00 | 10 | 980.4 |
| 20260504035524 | 37 | 28 | 10.0 | 0.0 | 0.00 | 0.60 | 0.00 | 10 | 980.4 |
| 20260504035021 | 37 | 309 | 10.0 | 0.0 | 0.00 | 0.60 | 0.00 | 10 | 980.4 |
| 20260504034519 | 37 | 2 | 13.0 | 0.0 | 0.00 | 0.60 | 0.00 | 10 | 980.1 |
| 20260504034019 | 37 | 2 | 11.0 | 0.0 | 0.00 | 0.60 | 0.00 | 10 | 980.1 |
| 20260504033517 | 37 | 337 | 10.0 | 0.0 | 0.00 | 0.60 | 0.00 | 10 | 979.7 |
| 20260504033015 | 37 | 28 | 12.0 | 0.0 | 0.00 | 0.60 | 0.00 | 10 | 979.7 |
| 20260504032513 | 37 | 36 | 12.0 | 0.0 | 0.00 | 0.60 | 0.00 | 10 | 979.7 |
| 20260504032012 | 37 | 354 | 13.0 | 0.0 | 0.00 | 0.60 | 0.00 | 10 | 979.7 |
| 20260504031511 | 37 | 30 | 16.0 | 0.0 | 0.01 | 0.60 | 0.00 | 10 | 979.4 |
| 20260504031010 | 37 | 340 | 14.0 | 0.0 | 0.01 | 0.60 | 0.00 | 10 | 979.4 |
| 20260504030508 | 37 | 315 | 11.0 | 0.0 | 0.02 | 0.60 | 0.00 | 10 | 979.4 |
| 20260504030008 | 37 | 327 | 13.0 | 0.0 | 0.02 | 0.60 | 0.00 | 10 | 979.7 |
| 20260504025505 | 37 | 359 | 8.0 | 0.0 | 0.02 | 0.60 | 0.00 | 10 | 979.7 |
| 20260504025004 | 37 | 28 | 16.0 | 0.0 | 0.02 | 0.60 | 0.00 | 10 | 979.7 |
| 20260504024501 | 37 | 17 | 15.0 | 0.0 | 0.02 | 0.60 | 0.00 | 10 | 979.7 |
| 20260504024000 | 37 | 348 | 12.0 | 0.0 | 0.03 | 0.60 | 0.00 | 10 | 979.7 |
| 20260504023600 | 38 | 325 | 13.0 | 0.0 | 0.03 | 0.60 | 0.00 | 10 | 979.7 |
| 20260504022556 | 38 | 344 | 19.0 | 0.0 | 0.03 | 0.60 | 0.00 | 10 | 979.7 |
| 20260504022054 | 38 | 35 | 14.0 | 0.0 | 0.04 | 0.60 | 0.00 | 10 | 979.4 |
| 20260504021550 | 38 | 10 | 15.0 | 0.0 | 0.03 | 0.59 | 0.00 | 10 | 979.4 |
| 20260504021049 | 37 | 341 | 12.0 | 0.0 | 0.03 | 0.59 | 0.00 | 10 | 979.4 |
| 20260504020548 | 37 | 38 | 10.0 | 0.0 | 0.02 | 0.58 | 0.00 | 10 | 979.7 |
| 20260504020046 | 37 | 344 | 10.0 | 0.0 | 0.02 | 0.58 | 0.00 | 10 | 979.7 |
| 20260504015544 | 37 | 40 | 17.0 | 0.0 | 0.02 | 0.58 | 0.00 | 10 | 979.7 |
| 20260504014541 | 37 | 351 | 10.0 | 0.0 | 0.02 | 0.58 | 0.00 | 10 | 979.7 |
| 20260504014039 | 37 | 35 | 13.0 | 0.0 | 0.01 | 0.57 | 0.00 | 10 | 979.7 |
| 20260504013536 | 37 | 331 | 13.0 | 0.0 | 0.01 | 0.57 | 0.00 | 10 | 980.1 |
| 20260504013032 | 37 | 13 | 13.0 | 0.0 | 0.02 | 0.57 | 0.00 | 10 | 980.1 |
| 20260504012531 | 37 | 40 | 20.0 | 0.0 | 0.02 | 0.57 | 0.00 | 10 | 980.1 |
| 20260504012029 | 37 | 34 | 18.0 | 0.0 | 0.02 | 0.56 | 0.00 | 10 | 980.4 |
| 20260504011527 | 37 | 28 | 15.0 | 0.0 | 0.02 | 0.56 | 0.00 | 10 | 980.4 |
| 20260504011026 | 37 | 335 | 12.0 | 0.0 | 0.02 | 0.56 | 0.00 | 10 | 980.4 |
| 20260504010523 | 37 | 5 | 15.0 | 0.0 | 0.03 | 0.56 | 0.00 | 10 | 980.8 |
| 20260504010022 | 37 | 347 | 19.0 | 0.0 | 0.03 | 0.56 | 0.00 | 10 | 980.8 |
| 20260504005520 | 37 | 26 | 19.0 | 0.0 | 0.03 | 0.56 | 0.00 | 10 | 980.8 |
| 20260504004516 | 37 | 36 | 18.0 | 0.0 | 0.04 | 0.56 | 0.00 | 10 | 981.1 |
| 20260504004014 | 37 | 56 | 14.0 | 0.0 | 0.04 | 0.56 | 0.00 | 10 | 981.4 |
| 20260504003512 | 37 | 16 | 13.0 | 0.0 | 0.05 | 0.56 | 0.00 | 10 | 981.8 |
| 20260504003011 | 37 | 22 | 21.0 | 0.0 | 0.04 | 0.55 | 0.00 | 10 | 982.1 |
| 20260504002509 | 37 | 10 | 13.0 | 0.0 | 0.05 | 0.55 | 0.00 | 10 | 982.1 |
| 20260504002008 | 37 | 55 | 16.0 | 0.0 | 0.04 | 0.54 | 0.00 | 10 | 982.1 |
| 20260504001506 | 37 | 26 | 21.0 | 0.0 | 0.05 | 0.54 | 0.00 | 10 | 982.1 |
| 20260504001004 | 37 | 19 | 21.0 | 0.0 | 0.05 | 0.54 | 0.00 | 10 | 982.5 |
| 20260504000503 | 37 | 31 | 12.0 | 0.0 | 0.05 | 0.53 | 0.00 | 10 | 982.5 |
| 20260504000001 | 37 | 30 | 10.0 | 0.0 | 0.05 | 0.53 | 0.00 | 10 | 982.5 |
| 20260503235559 | 37 | 30 | 17.0 | 0.0 | 0.05 | 0.53 | 0.00 | 10 | 983.1 |
| 20260503235058 | 38 | 20 | 17.0 | 0.0 | 0.04 | 0.52 | 0.00 | 10 | 983.1 |